Back to Top

My Weather Underground Personal Weather Station Historical Data with Graphs...

Delerius Weather Station Historical Data
Daily Summary for October 24, 2020 Units:  English    Metric   Both
Daily Weekly Monthly Yearly
  High: Low: Average:
Temperature: 57 °F 43.2 °F 49.8 °F
Dew Point: 53.4 °F 40.5 °F 47.3 °F
Humidity: 96% 87% 91%
Wind Speed: 30.1mph 2.5mph 16mph
Wind Gust: 44mph - -
Wind- - SSW
Pressure: 29.7 in 29.2 in -
Precipitation: 0.39 in    
 
 
Tabular Data for October 24, 2020
Time Temperature Dew Point Pressure Wind Wind Speed Wind Gust Humidity Rainfall Rate (Hourly) solar
00:04 44.4 °F 41.7 °F 29.7 in SSW 12.1 mph 16 mph 90% 0 in 0 W/m2
00:09 44.4 °F 41.5 °F 29.7 in SSW 12.3 mph 16 mph 89.4% 0 in 0 W/m2
00:14 44.4 °F 41.4 °F 29.7 in SSW 11.1 mph 16 mph 89% 0 in 0 W/m2
00:19 44.6 °F 41.5 °F 29.7 in SSW 11.9 mph 16 mph 89% 0 in 0 W/m2
00:24 44.6 °F 41.7 °F 29.7 in SSW 13.5 mph 18 mph 89% 0 in 0 W/m2
00:29 44.8 °F 41.7 °F 29.7 in SSW 13.9 mph 20 mph 89% 0 in 0 W/m2
00:34 44.8 °F 41.7 °F 29.7 in SSW 13.5 mph 19 mph 89% 0 in 0 W/m2
00:39 44.6 °F 41.5 °F 29.7 in SSW 14.2 mph 20 mph 89% 0 in 0 W/m2
00:44 44.4 °F 41.4 °F 29.7 in SSW 14.9 mph 20 mph 89% 0 in 0 W/m2
00:49 44.2 °F 41.2 °F 29.7 in SSW 13.9 mph 18 mph 89% 0 in 0 W/m2
00:54 43.9 °F 40.8 °F 29.7 in SSW 13.2 mph 18 mph 89% 0 in 0 W/m2
00:59 43.5 °F 40.6 °F 29.7 in SSW 13.9 mph 18 mph 89.8% 0 in 0 W/m2
01:04 43.3 °F 40.6 °F 29.7 in SSW 13.5 mph 18 mph 90% 0 in 0 W/m2
01:09 43.3 °F 40.6 °F 29.7 in SSW 12.9 mph 16 mph 90% 0 in 0 W/m2
01:14 43.3 °F 40.6 °F 29.7 in SSW 13 mph 19 mph 90.3% 0 in 0 W/m2
01:19 43.3 °F 40.8 °F 29.7 in SSW 14 mph 19 mph 91% 0 in 0 W/m2
01:24 43.3 °F 40.8 °F 29.7 in SSW 13.6 mph 19 mph 91% 0 in 0 W/m2
01:29 43.3 °F 40.8 °F 29.7 in SSW 14.8 mph 20 mph 91% 0 in 0 W/m2
01:34 43.5 °F 41.2 °F 29.7 in SSW 16.7 mph 23 mph 91% 0 in 0 W/m2
01:39 43.9 °F 41 °F 29.7 in SSW 16.8 mph 23 mph 90.1% 0 in 0 W/m2
01:44 43.9 °F 41.2 °F 29.7 in SSW 16.5 mph 22 mph 90% 0 in 0 W/m2
01:49 43.7 °F 41 °F 29.7 in SSW 15.2 mph 20 mph 90% 0 in 0 W/m2
01:54 43.7 °F 41 °F 29.7 in SSW 15.5 mph 23 mph 90% 0 in 0 W/m2
01:59 43.7 °F 41 °F 29.7 in SSW 16.2 mph 22 mph 90% 0 in 0 W/m2
02:04 43.7 °F 41 °F 29.7 in SSW 16 mph 21 mph 90% 0 in 0 W/m2
02:09 43.7 °F 41 °F 29.7 in SSW 15.3 mph 22 mph 90% 0 in 0 W/m2
02:14 43.9 °F 41.2 °F 29.7 in SSW 16 mph 23 mph 90% 0 in 0 W/m2
02:19 43.9 °F 40.8 °F 29.7 in SSW 14.4 mph 23 mph 89.3% 0 in 0 W/m2
02:24 43.9 °F 40.8 °F 29.7 in SSW 15.3 mph 20 mph 89.4% 0 in 0 W/m2
02:29 44.1 °F 41 °F 29.7 in SSW 14.7 mph 21 mph 89% 0 in 0 W/m2
02:34 43.9 °F 40.8 °F 29.7 in South 12.4 mph 16 mph 89% 0 in 0 W/m2
02:39 43.7 °F 40.6 °F 29.7 in South 10.9 mph 18 mph 89% 0 in 0 W/m2
02:44 43.5 °F 40.6 °F 29.7 in South 12.8 mph 22 mph 89.2% 0 in 0 W/m2
02:49 43.5 °F 40.8 °F 29.7 in South 16.3 mph 23 mph 89.8% 0 in 0 W/m2
02:54 43.3 °F 40.6 °F 29.7 in South 15.9 mph 23 mph 90% 0 in 0 W/m2
02:59 43.3 °F 40.6 °F 29.7 in South 14.2 mph 23 mph 90% 0 in 0 W/m2
03:04 43.2 °F 40.5 °F 29.7 in South 15 mph 20 mph 90% 0 in 0 W/m2
03:09 43.3 °F 40.6 °F 29.7 in South 14 mph 20 mph 90% 0 in 0 W/m2
03:14 43.3 °F 40.6 °F 29.7 in South 12.8 mph 20 mph 90% 0 in 0 W/m2
03:19 43.3 °F 40.5 °F 29.7 in South 13 mph 18 mph 90% 0 in 0 W/m2
03:24 43.2 °F 40.5 °F 29.7 in South 13 mph 20 mph 90% 0 in 0 W/m2
03:29 43.2 °F 40.5 °F 29.7 in South 13.7 mph 20 mph 90.2% 0 in 0 W/m2
03:34 43.3 °F 40.8 °F 29.7 in South 14.7 mph 21 mph 90.8% 0 in 0 W/m2
03:39 43.5 °F 41 °F 29.7 in South 12.7 mph 21 mph 91% 0 in 0 W/m2
03:44 44.1 °F 41.5 °F 29.7 in South 12.3 mph 20 mph 91% 0 in 0 W/m2
03:49 44.4 °F 42.1 °F 29.7 in South 14 mph 23 mph 91% 0 in 0 W/m2
03:54 45 °F 42.1 °F 29.7 in South 16 mph 23 mph 90.1% 0 in 0 W/m2
03:59 45 °F 42.3 °F 29.7 in South 15.6 mph 25 mph 90% 0 in 0 W/m2
04:04 45 °F 42.3 °F 29.7 in South 17 mph 25 mph 90% 0 in 0 W/m2
04:09 45 °F 42.3 °F 29.7 in South 14.1 mph 22 mph 90% 0 in 0 W/m2
04:14 45 °F 42.3 °F 29.6 in South 14.5 mph 21 mph 90% 0 in 0 W/m2
04:19 45 °F 42.3 °F 29.6 in South 14.3 mph 23 mph 90% 0 in 0 W/m2
04:24 45 °F 42.3 °F 29.6 in South 13.4 mph 23 mph 90% 0 in 0 W/m2
04:29 45.1 °F 42.4 °F 29.6 in South 15.7 mph 27 mph 90% 0 in 0 W/m2
04:34 45.1 °F 42.1 °F 29.6 in South 18 mph 27 mph 89.1% 0 in 0 W/m2
04:39 45.3 °F 42.3 °F 29.6 in South 14.5 mph 24 mph 89% 0 in 0 W/m2
04:44 45.3 °F 42.3 °F 29.6 in South 13.7 mph 24 mph 89% 0 in 0 W/m2
04:49 45.3 °F 42.3 °F 29.6 in South 15.3 mph 24 mph 89% 0 in 0 W/m2
04:54 45.3 °F 42.3 °F 29.6 in South 15 mph 25 mph 89% 0 in 0 W/m2
04:59 45.3 °F 42.3 °F 29.6 in South 13.7 mph 25 mph 89% 0 in 0 W/m2
05:04 45.3 °F 42.3 °F 29.6 in South 11.2 mph 18 mph 89% 0 in 0 W/m2
05:09 45.1 °F 42.1 °F 29.6 in South 10.9 mph 19 mph 89% 0 in 0 W/m2
05:14 45.1 °F 42.1 °F 29.6 in South 10.3 mph 23 mph 89% 0 in 0 W/m2
05:19 45.1 °F 42.1 °F 29.6 in South 12.7 mph 23 mph 89% 0 in 0 W/m2
05:24 45.3 °F 42.3 °F 29.6 in South 13.7 mph 25 mph 89% 0 in 0 W/m2
05:29 45.1 °F 42.1 °F 29.6 in South 11.4 mph 20 mph 89% 0 in 0 W/m2
05:34 45.1 °F 42.1 °F 29.6 in South 10.1 mph 16 mph 89% 0 in 0 W/m2
05:39 45.1 °F 42.1 °F 29.6 in SSE 9.3 mph 13 mph 89% 0 in 0 W/m2
05:44 45 °F 41.9 °F 29.6 in SSE 8.8 mph 15 mph 88.6% 0 in 0 W/m2
05:49 44.8 °F 41.5 °F 29.6 in SSE 9.3 mph 15 mph 88.5% 0 in 0 W/m2
05:54 44.8 °F 41.9 °F 29.6 in SSE 10.5 mph 18 mph 89.3% 0 in 0 W/m2
05:59 45.1 °F 42.1 °F 29.6 in SSE 9.8 mph 18 mph 89.2% 0 in 0 W/m2
06:04 45.3 °F 42.3 °F 29.6 in South 14.8 mph 25 mph 89% 0 in 0 W/m2
06:09 45.7 °F 42.6 °F 29.6 in South 16.6 mph 28 mph 88.7% 0 in 0 W/m2
06:14 45.9 °F 42.6 °F 29.6 in South 17.9 mph 31 mph 88% 0 in 0 W/m2
06:19 46 °F 42.8 °F 29.6 in South 18.6 mph 31 mph 88% 0 in 0 W/m2
06:24 46.2 °F 42.8 °F 29.6 in South 19.3 mph 27 mph 87.5% 0 in 0 W/m2
06:29 46.6 °F 42.8 °F 29.6 in South 16.5 mph 26 mph 87% 0 in 0 W/m2
06:34 46.6 °F 42.8 °F 29.6 in South 19.4 mph 30 mph 87% 0 in 0 W/m2
06:39 46.4 °F 42.8 °F 29.6 in South 20 mph 30 mph 87% 0 in 0 W/m2
06:44 46.4 °F 42.6 °F 29.6 in South 17.8 mph 30 mph 87% 0 in 0 W/m2
06:49 46.4 °F 42.8 °F 29.6 in South 16.3 mph 28 mph 87% 0 in 0 W/m2
06:54 46.6 °F 42.8 °F 29.6 in South 16.8 mph 25 mph 87% 0 in 0 W/m2
06:59 46.4 °F 42.6 °F 29.6 in South 14.8 mph 24 mph 87% 0 in 0 W/m2
07:04 46.2 °F 42.6 °F 29.6 in SSE 13.5 mph 24 mph 87% 0 in 0 W/m2
07:09 46 °F 42.4 °F 29.5 in SSE 12.9 mph 25 mph 87% 0 in 0 W/m2
07:14 46 °F 42.4 °F 29.5 in SSE 12.3 mph 25 mph 87.2% 0 in 0 W/m2
07:19 45.9 °F 42.4 °F 29.6 in South 15.4 mph 25 mph 87.8% 0 in 0 W/m2
07:24 45.7 °F 42.4 °F 29.6 in South 16.3 mph 25 mph 88.2% 0 in 0 W/m2
07:29 45.7 °F 42.6 °F 29.5 in South 15.3 mph 24 mph 88.9% 0 in 0 W/m2
07:34 45.7 °F 42.6 °F 29.5 in SSE 12.8 mph 23 mph 89% 0 in 0 W/m2
07:39 45.9 °F 42.6 °F 29.5 in South 12 mph 21 mph 89% 0 in 0 W/m2
07:44 45.9 °F 43 °F 29.5 in South 12.9 mph 25 mph 89.2% 0 in 0 W/m2
07:49 46 °F 43.3 °F 29.5 in South 14.5 mph 26 mph 90% 0 in 0 W/m2
07:54 46.2 °F 43.3 °F 29.5 in South 14.6 mph 26 mph 90% 0 in 0 W/m2
07:59 46.2 °F 43.3 °F 29.5 in South 17.4 mph 27 mph 90% 0 in 5 W/m2
08:04 46.2 °F 43.3 °F 29.5 in South 15.2 mph 27 mph 90% 0 in 9 W/m2
08:09 46.2 °F 43.3 °F 29.5 in South 15 mph 24 mph 90% 0 in 11 W/m2
08:14 46.2 °F 43.5 °F 29.5 in South 15.2 mph 25 mph 90% 0 in 16 W/m2
08:19 46.4 °F 43.5 °F 29.5 in South 13.6 mph 24 mph 90% 0 in 19 W/m2
08:24 46.6 °F 43.7 °F 29.5 in South 14.6 mph 24 mph 90% 0 in 19 W/m2
08:29 46.6 °F 43.9 °F 29.5 in South 14.4 mph 23 mph 90% 0 in 19 W/m2
08:34 46.8 °F 44.1 °F 29.5 in South 15.6 mph 26 mph 90% 0 in 21 W/m2
08:39 46.9 °F 44.2 °F 29.5 in South 18.4 mph 29 mph 90% 0 in 25 W/m2
08:44 47.1 °F 44.2 °F 29.5 in South 17 mph 29 mph 90% 0 in 25 W/m2
08:49 47.3 °F 44.4 °F 29.5 in South 16.2 mph 25 mph 90% 0 in 33 W/m2
08:54 47.5 °F 44.8 °F 29.5 in South 17 mph 26 mph 90% 0 in 33 W/m2
08:59 47.7 °F 44.8 °F 29.5 in South 18.1 mph 29 mph 90% 0 in 28 W/m2
09:04 47.7 °F 45 °F 29.5 in South 16.5 mph 29 mph 90% 0 in 33 W/m2
09:09 47.7 °F 45 °F 29.5 in South 19.2 mph 29 mph 90% 0 in 44 W/m2
09:14 47.8 °F 45 °F 29.5 in South 19.4 mph 29 mph 90.2% 0 in 56 W/m2
09:19 47.8 °F 45.3 °F 29.5 in South 20.6 mph 30 mph 90.8% 0 in 74 W/m2
09:24 48.2 °F 45.7 °F 29.5 in South 19.8 mph 30 mph 91% 0 in 76 W/m2
09:29 48.6 °F 46 °F 29.5 in South 21.3 mph 32 mph 91% 0 in 72 W/m2
09:34 48.7 °F 46 °F 29.5 in South 22.2 mph 35 mph 90.3% 0 in 65 W/m2
09:39 49.3 °F 46.4 °F 29.5 in South 27.8 mph 37 mph 90% 0 in 60 W/m2
09:44 49.5 °F 46.6 °F 29.5 in South 23.9 mph 36 mph 90% 0 in 56 W/m2
09:49 49.5 °F 46.8 °F 29.5 in South 27.4 mph 38 mph 90% 0 in 54 W/m2
09:54 49.6 °F 46.8 °F 29.5 in South 25.1 mph 37 mph 90% 0 in 51 W/m2
09:59 49.8 °F 46.9 °F 29.5 in South 26 mph 36 mph 90% 0 in 40 W/m2
10:04 49.8 °F 47.1 °F 29.5 in South 24.3 mph 36 mph 90% 0 in 40 W/m2
10:09 50 °F 47.3 °F 29.5 in South 24.4 mph 34 mph 90% 0 in 49 W/m2
10:14 50.2 °F 47.5 °F 29.5 in South 25 mph 34 mph 90% 0 in 53 W/m2
10:19 50.5 °F 47.7 °F 29.5 in South 25.7 mph 36 mph 90% 0 in 53 W/m2
10:24 50.7 °F 47.8 °F 29.5 in South 26.3 mph 36 mph 90% 0 in 69 W/m2
10:29 51.1 °F 48.2 °F 29.5 in South 27 mph 43 mph 90% 0 in 72 W/m2
10:34 51.3 °F 48 °F 29.5 in South 28.3 mph 43 mph 89% 0 in 77 W/m2
10:39 51.4 °F 48.2 °F 29.5 in SSW 27.3 mph 36 mph 89% 0 in 77 W/m2
10:44 51.4 °F 48.4 °F 29.5 in South 26.8 mph 37 mph 89% 0 in 76 W/m2
10:49 51.6 °F 48.6 °F 29.5 in South 28 mph 37 mph 89% 0 in 88 W/m2
10:54 51.8 °F 48.7 °F 29.5 in South 25.8 mph 41 mph 89% 0 in 97 W/m2
10:59 52 °F 48.7 °F 29.5 in South 25.9 mph 41 mph 89% 0 in 95 W/m2
11:04 52.2 °F 48.9 °F 29.5 in South 29 mph 37 mph 89% 0 in 102 W/m2
11:09 52.3 °F 49.1 °F 29.5 in South 29.3 mph 38 mph 89% 0 in 113 W/m2
11:14 52.3 °F 49.3 °F 29.5 in South 28.1 mph 37 mph 89% 0 in 137 W/m2
11:19 52.7 °F 49.6 °F 29.5 in South 30.1 mph 44 mph 89.2% 0 in 146 W/m2
11:24 53.1 °F 49.8 °F 29.5 in South 26.7 mph 44 mph 89.2% 0 in 146 W/m2
11:29 53.1 °F 50 °F 29.5 in South 27 mph 38 mph 89% 0 in 169 W/m2
11:34 53.4 °F 50.2 °F 29.5 in South 27.8 mph 41 mph 89% 0 in 171 W/m2
11:39 53.8 °F 50.5 °F 29.5 in South 28.7 mph 41 mph 89% 0 in 155 W/m2
11:44 54 °F 50.7 °F 29.5 in South 29.3 mph 39 mph 89% 0 in 153 W/m2
11:49 54.1 °F 51.1 °F 29.5 in South 27.1 mph 39 mph 89% 0 in 146 W/m2
11:54 54.3 °F 51.1 °F 29.5 in South 29 mph 41 mph 89% 0 in 128 W/m2
11:59 54.7 °F 51.4 °F 29.5 in South 27.5 mph 41 mph 89% 0 in 167 W/m2
12:04 54.9 °F 51.6 °F 29.5 in South 26.7 mph 39 mph 88.6% 0 in 167 W/m2
12:09 55 °F 51.6 °F 29.5 in South 27.1 mph 40 mph 88% 0 in 176 W/m2
12:14 55.4 °F 52 °F 29.5 in South 23.9 mph 40 mph 88% 0 in 193 W/m2
12:19 55.6 °F 52.2 °F 29.5 in South 27.2 mph 41 mph 88% 0 in 209 W/m2
12:24 55.8 °F 52.3 °F 29.4 in South 24.2 mph 40 mph 88% 0 in 171 W/m2
12:29 55.9 °F 52.3 °F 29.4 in South 24.1 mph 36 mph 88% 0 in 243 W/m2
12:34 56.1 °F 52.5 °F 29.4 in South 20.7 mph 35 mph 88% 0 in 211 W/m2
12:39 56.3 °F 52.5 °F 29.4 in South 24.7 mph 35 mph 87.3% 0 in 230 W/m2
12:44 56.5 °F 52.9 °F 29.4 in South 26.3 mph 40 mph 87.8% 0 in 230 W/m2
12:49 56.7 °F 52.9 °F 29.4 in South 25.5 mph 40 mph 87% 0 in 227 W/m2
12:54 56.7 °F 52.9 °F 29.4 in South 24.2 mph 36 mph 87% 0 in 120 W/m2
12:59 56.7 °F 52.9 °F 29.4 in South 24.3 mph 36 mph 87% 0 in 114 W/m2
13:04 56.7 °F 52.9 °F 29.4 in South 26.4 mph 36 mph 87% 0 in 86 W/m2
13:09 56.7 °F 52.9 °F 29.4 in South 25 mph 39 mph 87% 0 in 97 W/m2
13:14 56.7 °F 52.9 °F 29.4 in South 26.5 mph 40 mph 87% 0 in 142 W/m2
13:19 56.8 °F 53.1 °F 29.4 in South 24.8 mph 37 mph 87% 0 in 142 W/m2
13:24 57 °F 53.2 °F 29.4 in South 26.1 mph 37 mph 87% 0 in 120 W/m2
13:29 57 °F 53.2 °F 29.4 in SSW 26.7 mph 40 mph 87.4% 0 in 86 W/m2
13:34 56.8 °F 53.4 °F 29.4 in SSW 28 mph 44 mph 88.4% 0 in 65 W/m2
13:39 56.3 °F 53.4 °F 29.4 in SSW 25.9 mph 38 mph 89.5% 0.01 in 74 W/m2
13:44 55.9 °F 53.4 °F 29.4 in SSW 20.3 mph 30 mph 90.8% 0.01 in 32 W/m2
13:49 55.8 °F 53.2 °F 29.4 in SW 13.4 mph 29 mph 91.2% 0.01 in 21 W/m2
13:54 55.6 °F 53.2 °F 29.4 in SW 12.1 mph 23 mph 92% 0.01 in 25 W/m2
13:59 55.4 °F 53.2 °F 29.4 in WSW 11.4 mph 19 mph 92.2% 0.02 in 23 W/m2
14:04 55 °F 53.1 °F 29.4 in SW 12.2 mph 16 mph 93% 0.06 in 18 W/m2
14:09 54.9 °F 53.1 °F 29.4 in SW 11.4 mph 14 mph 93.8% 0.06 in 18 W/m2
14:14 54.9 °F 53.2 °F 29.4 in SW 12.9 mph 19 mph 94% 0.07 in 16 W/m2
14:19 54.7 °F 53.1 °F 29.4 in SW 13.5 mph 24 mph 94% 0.1 in 44 W/m2
14:24 54.7 °F 53.2 °F 29.4 in SSW 18.8 mph 24 mph 94.8% 0.12 in 49 W/m2
14:29 54.5 °F 53.1 °F 29.4 in SSW 18.8 mph 26 mph 94.8% 0.13 in 47 W/m2
14:34 54 °F 52.3 °F 29.4 in SSW 22.2 mph 30 mph 94.5% 0.14 in 53 W/m2
14:39 53.4 °F 51.8 °F 29.4 in SSW 21.1 mph 29 mph 94% 0.14 in 70 W/m2
14:44 53.8 °F 52 °F 29.4 in SSW 18.8 mph 26 mph 93.6% 0.14 in 70 W/m2
14:49 54.1 °F 52.2 °F 29.4 in SSW 18 mph 27 mph 92.5% 0.14 in 74 W/m2
14:54 54.3 °F 52 °F 29.4 in SW 16.7 mph 23 mph 92% 0.14 in 60 W/m2
14:59 54.1 °F 52.2 °F 29.4 in SSW 14.4 mph 23 mph 92.8% 0.14 in 58 W/m2
15:04 54.1 °F 52.2 °F 29.4 in SSW 10.6 mph 16 mph 93% 0.12 in 77 W/m2
15:09 54 °F 52.3 °F 29.4 in SSW 9.1 mph 14 mph 93.9% 0.09 in 93 W/m2
15:14 54 °F 52.3 °F 29.4 in SSW 9.1 mph 14 mph 94% 0.09 in 88 W/m2
15:19 54.1 °F 52.5 °F 29.4 in SSW 9 mph 13 mph 94% 0.08 in 69 W/m2
15:24 54.1 °F 52.5 °F 29.4 in SSW 9.8 mph 13 mph 94.2% 0.06 in 88 W/m2
15:29 54.1 °F 52.7 °F 29.4 in South 5.1 mph 10 mph 95% 0.04 in 88 W/m2
15:34 54.1 °F 52.9 °F 29.3 in South 6.5 mph 10 mph 95% 0.02 in 72 W/m2
15:39 54.3 °F 52.9 °F 29.3 in South 5.3 mph 9 mph 95% 0.02 in 76 W/m2
15:44 54.7 °F 53.2 °F 29.3 in SSE 6.4 mph 13 mph 95% 0.01 in 76 W/m2
15:49 54.7 °F 53.2 °F 29.3 in South 9.4 mph 16 mph 95% 0.01 in 35 W/m2
15:54 54.3 °F 53.1 °F 29.3 in South 13.6 mph 21 mph 95% 0.01 in 23 W/m2
15:59 54.3 °F 52.9 °F 29.3 in SSW 13.9 mph 20 mph 95% 0.03 in 56 W/m2
16:04 54.1 °F 52.7 °F 29.3 in SSW 16.1 mph 21 mph 95% 0.04 in 54 W/m2
16:09 54.1 °F 52.7 °F 29.3 in SSW 17 mph 22 mph 95% 0.05 in 28 W/m2
16:14 54 °F 52.5 °F 29.3 in South 17.1 mph 23 mph 95% 0.05 in 32 W/m2
16:19 53.8 °F 52.3 °F 29.3 in SSW 15.8 mph 26 mph 95% 0.05 in 28 W/m2
16:24 53.6 °F 52.2 °F 29.3 in SSW 17.1 mph 26 mph 95% 0.06 in 19 W/m2
16:29 53.2 °F 52 °F 29.3 in SSW 17.1 mph 25 mph 95% 0.08 in 30 W/m2
16:34 53.2 °F 51.8 °F 29.3 in SSW 15.8 mph 23 mph 95% 0.09 in 16 W/m2
16:39 53.1 °F 51.6 °F 29.3 in SW 17.8 mph 23 mph 95% 0.09 in 11 W/m2
16:44 53.1 °F 51.6 °F 29.3 in SW 14.4 mph 23 mph 95% 0.11 in 16 W/m2
16:49 53.1 °F 51.6 °F 29.3 in SW 17 mph 25 mph 95% 0.12 in 11 W/m2
16:54 53.1 °F 52 °F 29.3 in SW 17 mph 25 mph 95.8% 0.14 in 11 W/m2
16:59 53.1 °F 52 °F 29.3 in SW 14.8 mph 22 mph 96% 0.14 in 7 W/m2
17:04 53.1 °F 52 °F 29.3 in SW 14.5 mph 21 mph 96% 0.13 in 7 W/m2
17:09 53.1 °F 52 °F 29.3 in SW 14.7 mph 24 mph 96% 0.13 in 5 W/m2
17:14 53.1 °F 52 °F 29.3 in SW 14.3 mph 22 mph 96% 0.13 in 0 W/m2
17:19 53.1 °F 52 °F 29.3 in SW 13.5 mph 22 mph 96% 0.13 in 0 W/m2
17:24 53.1 °F 52 °F 29.3 in SSW 15.2 mph 22 mph 96% 0.12 in 0 W/m2
17:29 53.2 °F 52 °F 29.3 in SSW 15.8 mph 21 mph 96% 0.11 in 0 W/m2
17:34 53.2 °F 52.2 °F 29.3 in SSW 15 mph 22 mph 96% 0.1 in 0 W/m2
17:39 53.2 °F 52.2 °F 29.3 in SSW 15.8 mph 22 mph 96% 0.1 in 0 W/m2
17:44 53.1 °F 52 °F 29.3 in SSW 13.9 mph 20 mph 96% 0.09 in 0 W/m2
17:49 53.1 °F 52 °F 29.3 in SSW 14.9 mph 23 mph 96% 0.07 in 0 W/m2
17:54 53.1 °F 52 °F 29.3 in SSW 15.2 mph 21 mph 96% 0.06 in 0 W/m2
17:59 53.1 °F 52 °F 29.3 in SSW 15 mph 21 mph 96% 0.04 in 0 W/m2
18:04 53.1 °F 52 °F 29.3 in SSW 16.8 mph 24 mph 96% 0.03 in 0 W/m2
18:09 53.1 °F 52 °F 29.3 in SSW 16.5 mph 24 mph 96% 0.03 in 0 W/m2
18:14 53.2 °F 52.2 °F 29.3 in SSW 15.5 mph 21 mph 96% 0.03 in 0 W/m2
18:19 53.2 °F 52.2 °F 29.3 in SSW 16 mph 23 mph 96% 0.02 in 0 W/m2
18:24 53.2 °F 52 °F 29.3 in SSW 16.8 mph 24 mph 96% 0.02 in 0 W/m2
18:29 53.2 °F 52.2 °F 29.3 in SSW 18 mph 25 mph 95.9% 0.02 in 0 W/m2
18:34 53.2 °F 51.8 °F 29.3 in SSW 17.1 mph 25 mph 95% 0.02 in 0 W/m2
18:39 53.2 °F 51.8 °F 29.3 in SSW 17.9 mph 24 mph 95% 0.02 in 0 W/m2
18:44 53.2 °F 51.8 °F 29.3 in SSW 19.2 mph 29 mph 95% 0.02 in 0 W/m2
18:49 53.4 °F 52 °F 29.3 in SSW 18.9 mph 24 mph 95% 0.02 in 0 W/m2
18:54 53.4 °F 52 °F 29.3 in SSW 18.3 mph 24 mph 95% 0.02 in 0 W/m2
18:59 53.4 °F 52 °F 29.3 in SSW 17.1 mph 25 mph 95% 0.02 in 0 W/m2
19:04 53.4 °F 51.8 °F 29.3 in SSW 16.1 mph 25 mph 94.2% 0.02 in 0 W/m2
19:09 53.6 °F 52 °F 29.3 in SSW 16.5 mph 22 mph 94% 0.02 in 0 W/m2
19:14 53.6 °F 52 °F 29.3 in South 17.1 mph 23 mph 94% 0.01 in 0 W/m2
19:19 53.6 °F 51.8 °F 29.3 in South 16.1 mph 23 mph 94% 0.01 in 0 W/m2
19:24 53.4 °F 51.8 °F 29.3 in South 17.2 mph 28 mph 94% 0.01 in 0 W/m2
19:29 53.4 °F 51.8 °F 29.2 in South 18.6 mph 28 mph 94% 0.01 in 0 W/m2
19:34 53.4 °F 51.6 °F 29.2 in South 18.1 mph 26 mph 94% 0.01 in 0 W/m2
19:39 53.4 °F 51.8 °F 29.3 in SSW 18.3 mph 30 mph 94% 0 in 0 W/m2
19:44 53.6 °F 51.8 °F 29.3 in SSW 20.5 mph 30 mph 93.6% 0 in 0 W/m2
19:49 54 °F 52 °F 29.2 in SSW 21.6 mph 28 mph 93% 0 in 0 W/m2
19:54 54 °F 52 °F 29.2 in SSW 21 mph 31 mph 92.9% 0 in 0 W/m2
19:59 54.1 °F 52 °F 29.3 in SSW 19.7 mph 31 mph 92% 0 in 0 W/m2
20:04 54.1 °F 52 °F 29.2 in SSW 19.1 mph 25 mph 92% 0 in 0 W/m2
20:09 54.1 °F 52 °F 29.2 in SSW 18.5 mph 25 mph 92% 0 in 0 W/m2
20:14 54.1 °F 52 °F 29.2 in SSW 16.7 mph 23 mph 92% 0 in 0 W/m2
20:19 54.1 °F 52 °F 29.2 in SSW 18.7 mph 24 mph 92% 0 in 0 W/m2
20:24 54.3 °F 52 °F 29.2 in SSW 19.2 mph 25 mph 92% 0 in 0 W/m2
20:29 54.1 °F 52 °F 29.2 in SSW 16 mph 24 mph 92% 0 in 0 W/m2
20:34 54 °F 51.8 °F 29.2 in SSW 14.3 mph 21 mph 92% 0 in 0 W/m2
20:39 54 °F 51.6 °F 29.2 in SSW 16.3 mph 21 mph 92% 0 in 0 W/m2
20:44 54.1 °F 51.8 °F 29.2 in SSW 18.5 mph 26 mph 92% 0.01 in 0 W/m2
20:49 54.1 °F 52 °F 29.2 in SSW 17.8 mph 25 mph 92% 0.01 in 0 W/m2
20:54 54.1 °F 51.8 °F 29.2 in SSW 18.5 mph 25 mph 92% 0.01 in 0 W/m2
20:59 54 °F 51.6 °F 29.2 in SSW 20.3 mph 26 mph 92% 0.01 in 0 W/m2
21:04 54 °F 51.6 °F 29.3 in SSW 19.7 mph 25 mph 92% 0.01 in 0 W/m2
21:09 52.5 °F 49.6 °F 29.3 in West 16.6 mph 22 mph 90% 0.01 in 0 W/m2
21:14 50.9 °F 48.4 °F 29.3 in West 12.6 mph 20 mph 90.9% 0.01 in 0 W/m2
21:19 50.4 °F 48 °F 29.3 in West 10.4 mph 15 mph 92% 0.01 in 0 W/m2
21:24 50 °F 48 °F 29.3 in WNW 9.3 mph 14 mph 92.6% 0.01 in 0 W/m2
21:29 49.8 °F 47.8 °F 29.3 in West 8 mph 12 mph 93% 0.01 in 0 W/m2
21:34 49.6 °F 47.7 °F 29.3 in West 7.9 mph 12 mph 93% 0.01 in 0 W/m2
21:39 49.5 °F 47.5 °F 29.2 in West 4.3 mph 9 mph 93% 0.01 in 0 W/m2
21:44 49.5 °F 47.5 °F 29.3 in West 4.2 mph 7 mph 93% 0.01 in 0 W/m2
21:49 49.3 °F 47.7 °F 29.3 in West 5 mph 9 mph 94% 0 in 0 W/m2
21:54 49.1 °F 47.5 °F 29.3 in West 4 mph 9 mph 94% 0 in 0 W/m2
21:59 49.1 °F 47.5 °F 29.3 in West 4.2 mph 9 mph 94% 0 in 0 W/m2
22:04 48.9 °F 47.3 °F 29.3 in WSW 4.7 mph 7 mph 94% 0 in 0 W/m2
22:09 48.9 °F 47.3 °F 29.3 in WSW 5 mph 9 mph 94% 0 in 0 W/m2
22:14 48.9 °F 47.3 °F 29.3 in WSW 4.5 mph 9 mph 94% 0 in 0 W/m2
22:19 48.9 °F 47.3 °F 29.3 in WSW 4 mph 7 mph 94% 0 in 0 W/m2
22:24 48.9 °F 47.3 °F 29.3 in West 2.9 mph 7 mph 94% 0 in 0 W/m2
22:29 48.9 °F 47.3 °F 29.3 in West 3.3 mph 7 mph 94% 0.01 in 0 W/m2
22:34 48.9 °F 47.3 °F 29.3 in West 2.5 mph 6 mph 94% 0.01 in 0 W/m2
22:39 48.9 °F 47.3 °F 29.3 in WSW 4.3 mph 10 mph 94% 0.01 in 0 W/m2
22:44 48.9 °F 47.3 °F 29.3 in WSW 5.3 mph 10 mph 94% 0.01 in 0 W/m2
22:49 48.9 °F 47.3 °F 29.3 in West 3.1 mph 7 mph 94% 0.01 in 0 W/m2
22:54 48.9 °F 47.3 °F 29.3 in West 3.8 mph 7 mph 94% 0.01 in 0 W/m2
22:59 48.9 °F 47.3 °F 29.3 in WSW 3.2 mph 8 mph 94% 0.01 in 0 W/m2
23:04 48.9 °F 47.3 °F 29.3 in WSW 3.8 mph 8 mph 94% 0.01 in 0 W/m2
23:09 48.7 °F 46.9 °F 29.3 in WSW 3.5 mph 7 mph 93.6% 0.02 in 0 W/m2
23:14 48.7 °F 46.8 °F 29.3 in WSW 4.2 mph 8 mph 93% 0.02 in 0 W/m2
23:19 48.7 °F 46.8 °F 29.3 in SW 6.3 mph 8 mph 93% 0.02 in 0 W/m2
23:24 48.6 °F 46.8 °F 29.3 in WSW 6.3 mph 10 mph 93.4% 0.02 in 0 W/m2
23:29 48.6 °F 46.9 °F 29.3 in SW 6.8 mph 10 mph 94% 0.02 in 0 W/m2
23:34 48.6 °F 46.9 °F 29.3 in SW 6.6 mph 9 mph 94% 0.01 in 0 W/m2
23:39 48.6 °F 46.9 °F 29.3 in SW 7.4 mph 11 mph 94% 0.01 in 0 W/m2
23:44 48.7 °F 47.1 °F 29.3 in SW 8.3 mph 11 mph 94% 0.01 in 0 W/m2
23:49 48.7 °F 47.1 °F 29.3 in SW 8.7 mph 12 mph 94% 0.01 in 0 W/m2
23:54 48.7 °F 47.1 °F 29.3 in SW 10.3 mph 14 mph 94% 0.01 in 0 W/m2
23:59 48.7 °F 47.1 °F 29.3 in SW 10.9 mph 19 mph 93.9% 0.01 in 0 W/m2
North Lincolnshire Weather
Compliments of Weather Underground - 2 mb

Data updates at regular intervals.